OpenBCM V1.08-5-g2f4a (Linux)

Packet Radio Mailbox

IZ3LSV

[San Dona' di P. JN]

 Login: GUEST





  
I0OJJ  > KEPS     04.08.25 01:40l 341 Lines 16339 Bytes #45 (0) @ AMSAT
BID : ORB25216.1
Read: GUEST
Subj: 2Line Orbital Elements 25216.AMSAT
Path: IZ3LSV<IK6IHL<IK7NXU<HB9ON<HB9ON<PI8ZTM<VK2IO<VK2RZ<LU9DCE<EA2RCF<
      I0OJJ
Sent: 250804/0025z @:I0OJJ.ITA.EU [Rome] obcm1.08-10-g596e
From: I0OJJ @ I0OJJ.ITA.EU (Gustavo)
To:   KEPS @ AMSAT
X-Info: This message was generated automatically


QST de W1STR

AMSAT Orbital Elements for Amateur Satellites in TLE Format
From Orbital Analysis Office
New England Sci-Tech STEM Education Center
Natick, MA August 04, 2025
To all radio amateurs


These element sets describe the orbits of various satellites 
in use by the amateur radio community. For details see:
www.amsat.org/keplerian-elements-formats/

A daily update of element sets is available at:
www.amsat.org/tle/daily-bulletin.txt
or without bulletin text:
www.amsat.org/tle/dailytle.txt


AO-07
1 07530U 74089B   25215.81129316 -.00000035  00000-0  69352-4 0  9997
2 07530 101.9952 220.6657 0012378  18.6596 154.8907 12.53690498320981
UO-11
1 14781U 84021B   25215.48730584  .00001254  00000-0  13727-3 0  9995
2 14781  97.7584 180.7860 0008621 145.5499 214.6279 14.89519638209812
AO-27
1 22825U 93061C   25215.11312218  .00000082  00000-0  48443-4 0  9999
2 22825  98.7333 276.9316 0007565 319.0818  40.9796 14.30814282661518
FO-29
1 24278U 96046B   25215.61225151 -.00000016  00000-0  20592-4 0  9996
2 24278  98.5677 102.2487 0349586 199.8648 158.8591 13.53251005430213
NOAA-15
1 25338U 98030A   25215.85361727  .00000177  00000-0  90251-4 0  9991
2 25338  98.5339 239.6499 0010008 190.7797 169.3171 14.27006297416288
GO-32
1 25397U 98043D   25215.48556982  .00000072  00000-0  51172-4 0  9991
2 25397  98.9746 195.7616 0002261  68.2092 291.9327 14.24326621406109
ISS
1 25544U 98067A   25215.83698017  .00007332  00000-0  13480-3 0  9991
2 25544  51.6350  70.8995 0001705 149.7874 210.3214 15.50320041522556
NO-44
1 26931U 01043C   25215.62219049  .00000137  00000-0  82488-4 0  9992
2 26931  67.0527 345.5237 0006505 276.6436  83.3925 14.31757301245147
SO-50
1 27607U 02058C   25215.49281497  .00001008  00000-0  14206-3 0  9991
2 27607  64.5532  31.0116 0062144 322.1896  37.4851 14.81756603217367
CO-55
1 27844U 03031E   25215.48556499  .00000310  00000-0  15408-3 0  9992
2 27844  98.6770 223.0527 0010296  34.5717 325.6129 14.24032317146455
CO-57
1 27848U 03031J   25215.45971836  .00000265  00000-0  13623-3 0  9995
2 27848  98.6795 222.9909 0010487  50.6058 309.6047 14.23361942146175
RS-22
1 27939U 03042A   25215.86537557  .00001089  00000-0  17993-3 0  9990
2 27939  98.3328  26.6695 0011168 188.7278 307.8341 14.72464179168968
CO-58
1 28895U 05043F   25215.88454254  .00001591  00000-0  26635-3 0  9990
2 28895  98.2566   0.9516 0015495 129.0345 231.2243 14.71172345 55304
CO-65
1 32785U 08021C   25215.86859384  .00005511  00000-0  39345-3 0  9991
2 32785  97.7886 187.4690 0010386  34.1863 326.0029 15.04897720937464
CO-66
1 32791U 08021J   25215.50236628  .00011442  00000-0  53646-3 0  9999
2 32791  97.7307 196.8204 0003129  15.7130 344.4200 15.19847565938838
RS-30
1 32953U 08025A   25215.85197896  .00000036  00000-0  19105-3 0  9993
2 32953  82.5029 192.8057 0018000 286.8733  73.0373 12.43166834780396
NOAA-19
1 33591U 09005A   25215.84581544  .00000144  00000-0  10088-3 0  9998
2 33591  98.9943 280.8526 0013430 203.5695 156.4863 14.13397993849910
SRMSAT
1 37841U 11058D   25215.25736672  .00000413  00000-0  80473-4 0  9995
2 37841  19.9705 183.6689 0011547 306.9347 177.5638 14.11449419712844
ZACUBE-1
1 39417U 13066B   25215.40110383  .00003488  00000-0  30219-3 0  9996
2 39417  97.7816 172.1498 0042742 227.7003 132.0593 14.97081646633119
Delfi-N3xt
1 39428U 13066N   25215.34184570  .00004396  00000-0  44432-3 0  9991
2 39428  97.8309 132.3953 0083832 178.9263 181.2149 14.88927853627220
GOMX-1
1 39430U 13066Q   25215.84311351  .00001667  00000-0  26361-3 0  9997
2 39430  97.6787  71.1057 0132637  16.1950 344.3434 14.67832616623516
LO-74
1 39440U 13066AA  25215.40581661  .00004550  00000-0  45768-3 0  9999
2 39440  97.8504 159.6025 0061589   0.8639 359.2674 14.90302852629601
AO-73
1 39444U 13066AE  25215.88389259  .00004781  00000-0  35407-3 0  9999
2 39444  97.7861 178.0436 0040951 195.8643 164.1302 15.02959194632483
DTUSAT-2
1 40030U 14033W   25215.87535701  .00006368  00000-0  40813-3 0  9991
2 40030  98.0585 190.4035 0007854 224.9418 135.1174 15.08888001605248
EO-80
1 40032U 14033Y   25215.42859810  .00006014  00000-0  38493-3 0  9993
2 40032  98.0463 189.5132 0009011 164.4435 195.7071 15.08951517604640
LILACSAT-2
1 40908U 15049K   25215.85964460  .00010549  00000-0  26589-3 0  9999
2 40908  97.5052 237.5775 0007544 331.7645  28.3190 15.40046343546734
IO-86
1 40931U 15052B   25151.18580175  .00001241  00000-0  78118-4 0  9996
2 40931   6.0006  24.0987 0012733 338.8432  21.1169 14.78805930523047
Horyu-4
1 41340U 16012D   25215.90285151  .00020161  00000-0  50132-3 0  9992
2 41340  30.9961 119.3202 0007601 281.2117  78.7674 15.39011678521318
Lapan A3
1 41603U 16040E   25215.82997738  .00003198  00000-0  11172-3 0  9999
2 41603  97.1388 218.2836 0012773  75.5505 284.7153 15.30189616506235
CAS-2T
1 41847U 16066G   25215.23189828  .00000895  00000-0  13590-3 0  9992
2 41847  98.4178 289.2116 0345824  13.3577 347.6488 14.43631895458904
CAS-4B
1 42759U 17034B   25215.86286590  .00091396  00000-0  69107-3 0  9995
2 42759  43.0056 350.6506 0023003 317.4470  42.4615 15.71055842451275
CAS-4A
1 42761U 17034D   25215.84198362  .00098225  00000-0  68336-3 0  9996
2 42761  43.0093 347.1985 0023961 322.1519  37.7664 15.72948587451304
TechnoSat
1 42829U 17042E   25215.74437853  .00003787  00000-0  29222-3 0  9990
2 42829  97.3940  21.8151 0017760  93.4016 266.9241 15.02022603439008
AO-91
1 43017U 17073E   25215.44025400  .00008404  00000-0  42463-3 0  9995
2 43017  97.5182  84.8288 0169511 340.2124  19.2577 15.05589946417461
S-Net D
1 43186U 18014G   25215.29401124  .00004754  00000-0  27828-3 0  9994
2 43186  97.5559 117.6423 0010147  45.6823 314.5238 15.12271622410649
S-Net B
1 43187U 18014H   25215.30012986  .00004409  00000-0  25847-3 0  9997
2 43187  97.5565 117.6229 0010777  41.0363 319.1676 15.12252246410647
S-Net A
1 43188U 18014J   25215.29421118  .00004815  00000-0  28173-3 0  9993
2 43188  97.5574 117.7743 0010630  41.5380 318.6656 15.12277266410643
S-Net C
1 43189U 18014K   25215.30267203  .00004317  00000-0  25308-3 0  9993
2 43189  97.5590 117.8062 0011973  34.0854 326.1143 15.12248824409192
Ten-Koh
1 43677U 18084G   25215.47164507  .00002303  00000-0  18643-3 0  9990
2 43677  98.0843  29.9000 0008958  85.6347 274.5899 15.00791479368479
PO-101
1 43678U 18084H   25215.81364073  .00001563  00000-0  13584-3 0  9995
2 43678  98.1058  34.0623 0008597 101.2171 259.0017 14.98537774368658
QO-100
1 43700U 18090A   25215.55111167  .00000154  00000-0  00000-0 0  9994
2 43700   0.0172  90.2204 0001268  45.4502  40.8985  1.00274833 24491
MinXSS-2
1 43758U 18099A   25215.13372644  .00014656  00000-0  55138-3 0  9996
2 43758  97.4988 281.3899 0010235 328.5045  31.5579 15.27189935365297
AO-95
1 43770U 18099N   25215.11017089  .00009007  00000-0  44448-3 0  9993
2 43770  97.4879 272.6109 0010839  31.2034 328.9842 15.18076951364820
RANGE-A
1 43773U 18099R   25215.56162861  .00003945  00000-0  24956-3 0  9991
2 43773  97.4448 262.3722 0011178  11.5324 348.6159 15.09518280364514
MOVE-II
1 43780U 18099Y   25194.80194206  .15913345  26116-5  37118-3 0  9995
2 43780  97.4526 273.8800 0018736 270.1080  89.8075 16.44566529363241
SNUSat 2
1 43782U 18099AA  25215.56090420  .00006739  00000-0  36092-3 0  9990
2 43782  97.4563 269.3546 0010739 329.5504  30.5103 15.15292192364825
SnugLite
1 43784U 18099AC  25215.39192991  .00008168  00000-0  40005-3 0  9996
2 43784  97.4377 268.8657 0002468 351.6618   8.4574 15.18416848364958
ITASat 1
1 43786U 18099AE  25215.56298405  .00006086  00000-0  34246-3 0  9991
2 43786  97.4533 268.7015 0014406  22.8025 337.3843 15.13526624364777
EAGLET 1
1 43790U 18099AJ  25215.57960899  .00003483  00000-0  22125-3 0  9991
2 43790  97.4728 268.4875 0011899   8.3727 351.7698 15.09447352364368
ESEO
1 43792U 18099AL  25215.53737822  .00002145  00000-0  16447-3 0  9991
2 43792  97.4447 260.9639 0011633 339.6495  20.4266 15.02790439364070
CSIM
1 43793U 18099AM  25215.20464864  .01304985  10343-2  17925-2 0  9991
2 43793  97.4696 298.1003 0012109 276.0542  83.9359 16.06266862366297
JO-97
1 43803U 18099AX  25215.63668093  .00009992  00000-0  44157-3 0  9994
2 43803  97.4631 274.2486 0005971 319.6395  40.4398 15.21899166365146
Suomi 100
1 43804U 18099AY  25215.47913051  .00007782  00000-0  37157-3 0  9991
2 43804  97.4693 273.2257 0010774 321.9925  38.0549 15.19275200365035
ISAT
1 43879U 18111D   25215.53515126  .00018652  00000-0  60945-3 0  9995
2 43879  97.5905 131.2000 0008301  21.3671 338.7915 15.31759446362100
UWE-4
1 43880U 18111E   25215.27396203  .00015615  00000-0  58507-3 0  9998
2 43880  97.5852 129.0123 0012172  29.2645 330.9273 15.27292318361973
Sparrow
1 43881U 18111F   25215.34040305  .00022305  00000-0  69799-3 0  9995
2 43881  97.6058 134.0983 0008267  60.2029 300.0034 15.33106280362179
Prox-1
1 44339U 19036A   25215.88956354  .00009081  00000-0  11143-2 0  9995
2 44339  23.9972  58.2236 0007747 343.3661  16.6582 14.80913046326313
SONATE
1 44400U 19038Q   25185.47540524  .09032085  27445-5  31847-3 0  9995
2 44400  97.6609 216.4776 0012462 246.7970 113.2018 16.43248376333575
Taurus 1
1 44530U 19059C   25215.87087371  .00005514  00000-0  10061-2 0  9991
2 44530  98.6118 357.9247 0008916 217.4543 142.6039 14.66392386312041
Duchifat 3
1 44854U 19089C   25215.81176318  .00050757  00000-0  84218-3 0  9992
2 44854  36.9421   2.9022 0005335  33.1295 326.9797 15.51088223311515
TO-108
1 44881U 19093C   25215.85599538  .00000875  00000-0  10681-3 0  9993
2 44881  97.7901 290.3463 0014891  54.0713 306.1881 14.85696744304288
